TimePST,TemperatureF,Dew PointF,Humidity,Sea Level PressureIn,VisibilityMPH,Wind Direction,Wind SpeedMPH,Gust SpeedMPH,PrecipitationIn,Events,Conditions,WindDirDegrees,DateUTC
12:33 AM,33.8,30.2,87,29.82,3.0,NW,4.6,-,0.01,Snow,Light Snow,310,2013-03-06 08:33:00
12:55 AM,33.1,30.9,92,29.84,3.0,NW,3.5,-,0.01,Snow,Light Snow,310,2013-03-06 08:55:00
1:02 AM,32.0,30.2,93,29.81,2.5,NW,4.6,-,0.01,Snow,Light Snow,310,2013-03-06 09:02:00
1:36 AM,32.0,30.2,93,29.80,3.0,NW,3.5,-,0.02,Snow,Light Snow,310,2013-03-06 09:36:00
1:45 AM,32.0,30.2,93,29.80,2.5,Calm,Calm,-,0.02,Snow,Light Snow,0,2013-03-06 09:45:00
1:55 AM,32.0,30.9,96,29.82,2.5,Calm,Calm,-,0.02,Snow,Light Snow,0,2013-03-06 09:55:00
2:12 AM,32.0,30.2,93,29.78,3.0,Calm,Calm,-,0.01,Snow,Light Snow,0,2013-03-06 10:12:00
2:55 AM,32.0,30.0,92,29.78,4.0,NW,3.5,-,0.02,Snow,Light Snow,320,2013-03-06 10:55:00
3:50 AM,32.0,30.2,93,29.73,2.5,NW,3.5,-,0.01,Snow,Light Snow,320,2013-03-06 11:50:00
3:55 AM,32.0,30.0,92,29.75,2.5,NW,3.5,-,0.01,Snow,Light Snow,320,2013-03-06 11:55:00
4:55 AM,32.0,30.0,92,29.73,3.0,West,5.8,-,0.02,Snow,Light Snow,280,2013-03-06 12:55:00
5:07 AM,32.0,30.2,93,29.70,3.0,West,4.6,-,0.00,Snow,Light Snow,270,2013-03-06 13:07:00
5:16 AM,32.0,30.2,93,29.70,2.0,West,5.8,-,0.00,Snow,Light Snow,270,2013-03-06 13:16:00
5:25 AM,32.0,30.2,93,29.70,1.2,West,4.6,-,0.01,Snow,Light Snow,280,2013-03-06 13:25:00
5:36 AM,32.0,30.2,93,29.70,1.2,West,4.6,-,0.01,Snow,Light Snow,280,2013-03-06 13:36:00
5:43 AM,32.0,30.2,93,29.69,1.2,WNW,4.6,-,0.01,Snow,Light Snow,290,2013-03-06 13:43:00
5:55 AM,32.0,30.9,96,29.72,1.8,WNW,3.5,-,0.02,Snow,Light Snow,300,2013-03-06 13:55:00
6:15 AM,32.0,30.2,93,29.68,2.0,WNW,4.6,-,0.01,Snow,Light Snow,300,2013-03-06 14:15:00
6:25 AM,32.0,30.2,93,29.68,1.8,WNW,4.6,-,0.02,Snow,Light Snow,300,2013-03-06 14:25:00
6:55 AM,32.0,30.9,96,29.70,1.0,West,3.5,-,0.03,Snow,Light Snow,280,2013-03-06 14:55:00
7:32 AM,32.0,30.2,93,29.67,2.0,WNW,4.6,-,0.01,Snow,Light Snow,290,2013-03-06 15:32:00
7:39 AM,32.0,30.2,93,29.66,1.2,WNW,4.6,-,0.01,Snow,Light Snow,290,2013-03-06 15:39:00
7:52 AM,32.0,30.2,93,29.65,0.8,NNW,4.6,-,0.02,Snow,Light Snow,340,2013-03-06 15:52:00
7:55 AM,32.0,30.9,96,29.68,0.8,NNW,4.6,-,0.02,Snow,Light Snow,340,2013-03-06 15:55:00
8:05 AM,32.0,30.2,93,29.66,1.0,West,4.6,-,0.00,Snow,Light Snow,280,2013-03-06 16:05:00
8:25 AM,32.0,30.2,93,29.65,2.0,West,5.8,-,0.01,Snow,Light Snow,270,2013-03-06 16:25:00
8:35 AM,32.0,30.2,93,29.65,1.5,Calm,Calm,-,0.01,Snow,Light Snow,0,2013-03-06 16:35:00
8:47 AM,32.0,30.2,93,29.65,1.5,WNW,4.6,-,0.02,Snow,Light Snow,300,2013-03-06 16:47:00
8:53 AM,32.0,30.2,93,29.65,2.0,WNW,4.6,-,0.02,Snow,Light Snow,290,2013-03-06 16:53:00
8:55 AM,32.0,30.9,96,29.68,2.0,West,4.6,-,0.02,Snow,Light Snow,280,2013-03-06 16:55:00
9:10 AM,32.0,30.2,93,29.65,1.2,West,4.6,-,0.00,Snow,Light Snow,280,2013-03-06 17:10:00
9:43 AM,33.8,30.2,87,29.65,1.8,WNW,4.6,-,0.01,Snow,Light Snow,290,2013-03-06 17:43:00
9:55 AM,33.1,30.9,92,29.68,1.8,West,5.8,-,0.01,Snow,Light Snow,280,2013-03-06 17:55:00
10:06 AM,33.8,30.2,87,29.64,2.5,West,5.8,-,0.01,Snow,Light Snow,280,2013-03-06 18:06:00
10:14 AM,33.8,30.2,87,29.64,4.0,West,5.8,-,0.01,Snow,Light Snow,280,2013-03-06 18:14:00
10:24 AM,33.8,30.2,87,29.64,5.0,WNW,5.8,-,0.01,Snow,Light Snow,290,2013-03-06 18:24:00
10:51 AM,33.8,30.2,87,29.64,6.0,WNW,5.8,-,0.01,Snow,Light Snow,290,2013-03-06 18:51:00
10:55 AM,33.1,30.9,92,29.67,5.0,WNW,5.8,-,0.01,Snow,Light Snow,290,2013-03-06 18:55:00
11:17 AM,33.8,30.2,87,29.64,1.8,West,4.6,-,0.00,Snow,Light Snow,270,2013-03-06 19:17:00
11:55 AM,32.0,30.9,96,29.68,0.5,Calm,Calm,-,0.03,Fog-Snow,Snow,0,2013-03-06 19:55:00
12:16 PM,32.0,30.2,93,29.64,0.5,WNW,4.6,-,0.05,Fog-Snow,Snow,290,2013-03-06 20:16:00
12:55 PM,32.0,30.9,96,29.67,1.8,NW,3.5,-,0.08,Snow,Light Snow,310,2013-03-06 20:55:00
1:19 PM,32.0,30.2,93,29.64,0.8,WNW,4.6,-,0.03,Snow,Light Snow,290,2013-03-06 21:19:00
1:27 PM,33.8,30.2,87,29.63,2.0,WNW,4.6,-,0.04,Snow,Light Snow,290,2013-03-06 21:27:00
1:37 PM,33.8,30.2,87,29.63,5.0,WNW,5.8,-,0.04,Snow,Light Snow,290,2013-03-06 21:37:00
2:21 PM,33.8,32.0,93,29.63,10.0,NW,3.5,-,0.00,Rain,Light Rain,310,2013-03-06 22:21:00
2:32 PM,35.6,32.0,87,29.63,10.0,WNW,3.5,-,0.00,Rain,Light Rain,290,2013-03-06 22:32:00
2:40 PM,35.6,33.8,93,29.64,10.0,WNW,4.6,-,0.00,Rain,Light Rain,300,2013-03-06 22:40:00
2:55 PM,36.0,33.1,89,29.67,10.0,NW,4.6,-,0.00,Rain,Light Rain,310,2013-03-06 22:55:00
3:00 PM,35.6,33.8,93,29.64,10.0,WNW,4.6,-,0.00,Rain,Light Rain,300,2013-03-06 23:00:00
3:29 PM,35.6,33.8,93,29.64,10.0,WNW,4.6,-,0.01,Rain,Light Rain,300,2013-03-06 23:29:00
3:55 PM,36.0,34.0,93,29.67,10.0,West,3.5,-,0.01,,Overcast,280,2013-03-06 23:55:00
4:10 PM,35.6,33.8,93,29.64,10.0,Calm,Calm,-,N/A,,Overcast,0,2013-03-07 00:10:00
4:37 PM,37.4,33.8,87,29.65,10.0,Calm,Calm,-,N/A,,Overcast,0,2013-03-07 00:37:00
4:55 PM,36.0,34.0,93,29.68,10.0,WNW,3.5,-,N/A,,Overcast,290,2013-03-07 00:55:00
5:25 PM,35.6,33.8,93,29.66,10.0,Calm,Calm,-,N/A,,Overcast,0,2013-03-07 01:25:00
5:34 PM,35.6,33.8,93,29.66,9.0,Calm,Calm,-,N/A,,Overcast,0,2013-03-07 01:34:00
5:55 PM,36.0,33.1,89,29.70,10.0,ENE,3.5,-,0.00,Rain,Light Rain,60,2013-03-07 01:55:00
6:04 PM,35.6,33.8,93,29.67,10.0,Calm,Calm,-,0.00,Rain,Light Rain,0,2013-03-07 02:04:00
6:55 PM,36.0,32.0,86,29.73,10.0,Calm,Calm,-,0.01,Rain,Light Rain,0,2013-03-07 02:55:00
7:10 PM,35.6,33.8,93,29.70,8.0,Calm,Calm,-,0.01,Rain,Light Rain,0,2013-03-07 03:10:00
7:21 PM,35.6,33.8,93,29.70,8.0,Calm,Calm,-,0.02,Rain,Light Rain,0,2013-03-07 03:21:00
7:55 PM,35.1,33.1,92,29.74,8.0,Calm,Calm,-,0.02,Rain,Light Rain,0,2013-03-07 03:55:00
8:27 PM,35.6,33.8,93,29.72,5.0,Calm,Calm,-,0.00,,Overcast,0,2013-03-07 04:27:00
8:55 PM,35.1,33.1,92,29.77,6.0,Calm,Calm,-,0.00,,Overcast,0,2013-03-07 04:55:00
9:55 PM,35.1,32.0,89,29.80,5.0,ENE,3.5,-,N/A,,Overcast,60,2013-03-07 05:55:00
10:55 PM,35.1,32.0,89,29.82,10.0,East,3.5,-,N/A,,Overcast,80,2013-03-07 06:55:00
11:55 PM,35.1,33.1,92,29.84,10.0,ESE,3.5,-,N/A,,Overcast,110,2013-03-07 07:55:00